Weather Roundup
Issued by NWS Chicago, IL

Home | Current Version | Previous Version | Text Only | Print | Product List | Glossary On
Versions: 1 2 3 4 5 6 7 8 9 10 11 12 13 14 15 16 17 18 19 20 21 22 23 24 25 26 27 28 29 30 31 32 33 34 35 36 37 38 39 40 41 42 43 44 45 46 47 48 49 50
000
NZUS59 KLOT 051308
HRRLOT

CHICAGO AREA WEATHER ROUNDUP
NATIONAL WEATHER SERVICE CHICAGO/ROMEOVILLE IL
800 AM CDT WED AUG 05 2015

NOTE: "FAIR" INDICATES FEW OR NO CLOUDS BELOW 12,000 FEET WITH NO
SIGNIFICANT WEATHER AND/OR OBSTRUCTIONS TO VISIBILITY.

* THESE STATIONS ARE NOT UNDER NWS QUALITY CONTROL. THEY ALSO MAY NOT
  REPORT WEATHER SUCH AS PRECIPITATION OR FOG.

ILZ005-006-012>014-019>023-051400-
NORTHEAST ILLINOIS

CITY           SKY/WX    TMP DP  RH WIND       PRES   REMARKS
OHARE          MOSUNNY   72  57  59 W3        30.05S
MIDWAY         PTSUNNY   72  59  63 S3        30.05S
AURORA         SUNNY     66  58  75 CALM      30.06S
LANSING*       SUNNY     67  60  79 CALM      30.05F
JOLIET*        SUNNY     68  61  77 CALM      30.06R
WAUKEGAN       SUNNY     68  58  70 CALM      30.05R
DUPAGE AIRPORT SUNNY     68  60  75 CALM      30.05S
WHEELING       SUNNY     70  57  63 CALM      30.06S
KANKAKEE*      SUNNY     67  61  81 CALM      30.06S
MORRIS*        SUNNY     64  60  86 CALM      30.04S
LEWIS AIRPORT* SUNNY     67  59  74 CALM      30.06S
NORTHERLY IS   NOT AVBL
$$

WIZ051-052-058>065-066-070>072-051400-
SOUTHEAST WISCONSIN

CITY           SKY/WX    TMP DP  RH WIND       PRES   REMARKS
MILWAUKEE      MOSUNNY   70  56  61 NE6       30.05S
KENOSHA*       SUNNY     67  59  75 N3        30.05S
RACINE*        SUNNY     68  57  68 N3        30.06S
BURLINGTON     SUNNY     62  56  80 CALM      30.05S
WAUKESHA       SUNNY     63  59  88 NW5       30.06S
WEST BEND      MOSUNNY   63  59  88 NE5       30.06S
$$

INZ001>003-010>013-019-020-051400-
NORTHWEST INDIANA

CITY           SKY/WX    TMP DP  RH WIND       PRES   REMARKS
GARY*          MOSUNNY   70  61  73 CALM      30.07R
MICHIGAN CITY* NOT AVBL
RENSSELAER*    NOT AVBL
VALPARAISO     SUNNY     68  57  68 CALM      30.07S
$$

LMZ740>746-051400-
SOUTHERN LAKE MICHIGAN

STATION/POSITION TIME  SKY/WX   TEMP WIND        PRES    VSBY
                                AIR  DIR/SP/G
                 (UTC)          (F)  (DEG/KT/KT) (MB)    (MI)
HARRISON CRIB    1200            69  280/  5/  6   N/A
BURNHAM HARBOR   1300            74  260/  3/  5   N/A
CALUMET HARBOR   1200            68  250/  3/  4   N/A
BURNS HARBOR     1200            66  180/  6/  7 1018.3R
MICHIGAN CITY    1200            66  170/  4/  5   N/A
$$

ABBREVIATIONS USED IN REMARKS
   TC - TEMPERATURE IN CELSIUS
  WCI - WIND CHILL INDEX
   HX - HEAT INDEX
  VSB - VISIBILITY
$$


USA.gov is the U.S. government's official web portal to all federal, state and local government web resources and services.